• In Lithuania
  • List of Countries
  • For 7 days
  • Water Temperature
  • Satellite Maps
  • Weather Map
  • Weather Widgets
  • user-avatar
    Login

    Hourly Weather Wiktoria

    Today, 21 November, Tuesday

    Time Temperature Precipitation Wind Pressure Humidity
    00:00 +19°C° 0 mm 2 mps 753 mmHg 51%
    01:00 +18°C° 0 mm 3 mps 753 mmHg 54%
    02:00 +18°C° 0 mm 3 mps 753 mmHg 59%
    03:00 +17°C° 0 mm 3 mps 753 mmHg 65%
    04:00 +16°C° 0 mm 3 mps 753 mmHg 71%
    05:00 +17°C° 0 mm 3 mps 754 mmHg 70%
    06:00 +18°C° 0 mm 4 mps 754 mmHg 69%
    07:00 +19°C° 0 mm 4 mps 754 mmHg 68%
    08:00 +22°C° 0 mm 4 mps 754 mmHg 62%
    09:00 +25°C° 0 mm 4 mps 754 mmHg 55%
    10:00 +27°C° 0 mm 3 mps 754 mmHg 49%
    11:00 +28°C° 0 mm 3 mps 753 mmHg 45%
    12:00 +29°C° 0 mm 2 mps 753 mmHg 40%
    13:00 +31°C° 0 mm 2 mps 752 mmHg 36%
    14:00 +31°C° 0 mm 2 mps 752 mmHg 35%
    15:00 +31°C° 0 mm 2 mps 751 mmHg 34%
    16:00 +32°C° 0 mm 1 mps 751 mmHg 33%
    17:00 +30°C° 0 mm 1 mps 751 mmHg 38%
    18:00 +28°C° 0 mm 1 mps 751 mmHg 43%
    19:00 +26°C° 0 mm 1 mps 751 mmHg 49%
    20:00 +25°C° 0 mm 1 mps 751 mmHg 51%
    21:00 +24°C° 0 mm 1 mps 751 mmHg 54%
    22:00 +23°C° 0 mm 2 mps 752 mmHg 57%
    23:00 +21°C° 0.1 mm 2 mps 751 mmHg 60%

    Tomorrow, 22 November, Wednesday

    Time Temperature Precipitation Wind Pressure Humidity
    00:00 +20°C° 0.1 mm 2 mps 751 mmHg 63%
    01:00 +20°C° 0.1 mm 2 mps 751 mmHg 67%
    02:00 +19°C° 0.1 mm 3 mps 751 mmHg 69%
    03:00 +18°C° 0.1 mm 3 mps 751 mmHg 71%
    04:00 +17°C° 0.1 mm 3 mps 751 mmHg 73%
    05:00 +18°C° 0 mm 3 mps 751 mmHg 71%
    06:00 +19°C° 0 mm 4 mps 751 mmHg 69%
    07:00 +19°C° 0 mm 4 mps 752 mmHg 66%
    08:00 +22°C° 0 mm 4 mps 752 mmHg 59%
    09:00 +25°C° 0 mm 4 mps 751 mmHg 52%
    10:00 +27°C° 0 mm 4 mps 751 mmHg 45%
    11:00 +28°C° 0 mm 3 mps 751 mmHg 41%
    12:00 +30°C° 0 mm 2 mps 750 mmHg 37%
    13:00 +31°C° 0 mm 2 mps 749 mmHg 33%
    14:00 +31°C° 0 mm 2 mps 749 mmHg 32%
    15:00 +32°C° 0 mm 2 mps 748 mmHg 31%
    16:00 +32°C° 0 mm 2 mps 748 mmHg 29%
    17:00 +30°C° 0 mm 2 mps 748 mmHg 35%
    18:00 +28°C° 0 mm 1 mps 748 mmHg 40%
    19:00 +26°C° 0 mm 1 mps 748 mmHg 45%
    20:00 +24°C° 0 mm 1 mps 748 mmHg 48%
    21:00 +23°C° 0 mm 2 mps 748 mmHg 52%
    22:00 +21°C° 0 mm 2 mps 749 mmHg 55%
    23:00 +20°C° 0.1 mm 2 mps 749 mmHg 58%

    Day after tomorrow, 23 November, Thursday

    Time Temperature Precipitation Wind Pressure Humidity
    00:00 +19°C° 0.1 mm 2 mps 748 mmHg 61%
    01:00 +19°C° 0.1 mm 3 mps 748 mmHg 64%
    02:00 +18°C° 0 mm 3 mps 748 mmHg 68%
    03:00 +17°C° 0 mm 3 mps 748 mmHg 72%
    04:00 +17°C° 0 mm 3 mps 748 mmHg 76%
    05:00 +18°C° 0 mm 3 mps 748 mmHg 73%
    06:00 +19°C° 0 mm 4 mps 748 mmHg 71%
    07:00 +20°C° 0 mm 4 mps 749 mmHg 69%
    08:00 +22°C° 0 mm 4 mps 749 mmHg 61%
    09:00 +26°C° 0 mm 4 mps 749 mmHg 53%
    10:00 +28°C° 0 mm 4 mps 749 mmHg 44%
    11:00 +30°C° 0 mm 3 mps 748 mmHg 39%
    12:00 +31°C° 0 mm 2 mps 747 mmHg 34%
    13:00 +33°C° 0 mm 1 mps 747 mmHg 28%
    14:00 +33°C° 0 mm 1 mps 747 mmHg 27%
    15:00 +33°C° 0 mm 1 mps 746 mmHg 26%
    16:00 +33°C° 0 mm 1 mps 746 mmHg 25%
    17:00 +31°C° 0 mm 2 mps 746 mmHg 30%
    18:00 +29°C° 0 mm 2 mps 746 mmHg 35%
    19:00 +27°C° 0 mm 3 mps 746 mmHg 40%
    20:00 +25°C° 0.1 mm 3 mps 747 mmHg 46%
    21:00 +24°C° 0.1 mm 3 mps 747 mmHg 51%
    22:00 +21°C° 0.1 mm 3 mps 747 mmHg 57%
    23:00 +21°C° 0 mm 3 mps 747 mmHg 60%

    24 November, Friday

    Time Temperature Precipitation Wind Pressure Humidity
    00:00 +20°C° 0 mm 3 mps 747 mmHg 62%
    01:00 +20°C° 0 mm 3 mps 747 mmHg 65%
    02:00 +19°C° 0 mm 3 mps 747 mmHg 69%
    03:00 +18°C° 0 mm 3 mps 747 mmHg 72%
    04:00 +18°C° 0 mm 3 mps 747 mmHg 76%
    05:00 +19°C° 0 mm 3 mps 748 mmHg 72%
    06:00 +20°C° 0 mm 3 mps 748 mmHg 68%
    07:00 +21°C° 0 mm 3 mps 749 mmHg 64%
    08:00 +25°C° 0 mm 3 mps 749 mmHg 55%
    09:00 +28°C° 0 mm 3 mps 748 mmHg 46%
    10:00 +30°C° 0 mm 3 mps 748 mmHg 37%
    11:00 +32°C° 0 mm 2 mps 748 mmHg 32%
    12:00 +35°C° 0 mm 2 mps 747 mmHg 27%
    13:00 +36°C° 0 mm 2 mps 747 mmHg 23%
    14:00 +36°C° 0 mm 2 mps 747 mmHg 24%
    15:00 +34°C° 0 mm 1 mps 747 mmHg 25%
    16:00 +34°C° 0 mm 1 mps 747 mmHg 25%
    17:00 +32°C° 0 mm 2 mps 747 mmHg 30%
    18:00 +30°C° 0 mm 2 mps 747 mmHg 34%
    19:00 +28°C° 0 mm 2 mps 748 mmHg 38%
    20:00 +26°C° 0 mm 3 mps 748 mmHg 44%
    21:00 +25°C° 0 mm 3 mps 748 mmHg 50%
    22:00 +23°C° 0 mm 4 mps 749 mmHg 56%
    23:00 +21°C° 0 mm 3 mps 748 mmHg 60%

    25 November, Saturday

    Time Temperature Precipitation Wind Pressure Humidity
    00:00 +20°C° 0 mm 3 mps 748 mmHg 64%
    01:00 +19°C° 0 mm 3 mps 748 mmHg 68%
    02:00 +19°C° 0 mm 3 mps 748 mmHg 68%
    03:00 +19°C° 0 mm 3 mps 748 mmHg 67%
    04:00 +18°C° 0 mm 3 mps 748 mmHg 67%
    05:00 +20°C° 0 mm 3 mps 748 mmHg 62%
    06:00 +21°C° 0 mm 3 mps 748 mmHg 57%
    07:00 +23°C° 0 mm 4 mps 749 mmHg 52%
    08:00 +26°C° 0 mm 4 mps 749 mmHg 46%
    09:00 +28°C° 0 mm 4 mps 749 mmHg 40%
    10:00 +32°C° 0 mm 4 mps 749 mmHg 34%
    11:00 +32°C° 0 mm 4 mps 748 mmHg 33%
    12:00 +32°C° 0 mm 4 mps 748 mmHg 32%
    13:00 +32°C° 0 mm 4 mps 747 mmHg 30%
    14:00 +33°C° 0 mm 3 mps 747 mmHg 30%
    15:00 +33°C° 0 mm 3 mps 747 mmHg 30%
    16:00 +33°C° 0 mm 3 mps 746 mmHg 29%
    17:00 +30°C° 0.2 mm 3 mps 747 mmHg 37%
    18:00 +28°C° 0.2 mm 4 mps 747 mmHg 46%
    19:00 +26°C° 0.2 mm 4 mps 747 mmHg 54%
    20:00 +23°C° 1.6 mm 4 mps 747 mmHg 63%
    21:00 +22°C° 1.6 mm 4 mps 747 mmHg 72%
    22:00 +20°C° 1.6 mm 3 mps 748 mmHg 82%
    23:00 +20°C° 1.3 mm 3 mps 747 mmHg 82%

    26 November, Sunday

    Time Temperature Precipitation Wind Pressure Humidity
    00:00 +20°C° 1.3 mm 4 mps 747 mmHg 83%
    01:00 +20°C° 1.3 mm 4 mps 746 mmHg 84%
    02:00 +19°C° 0.2 mm 4 mps 746 mmHg 83%
    03:00 +19°C° 0.2 mm 4 mps 746 mmHg 83%
    04:00 +19°C° 0.2 mm 4 mps 746 mmHg 83%
    05:00 +20°C° 0 mm 4 mps 746 mmHg 80%
    06:00 +21°C° 0 mm 4 mps 746 mmHg 76%
    07:00 +21°C° 0 mm 5 mps 747 mmHg 73%
    08:00 +23°C° 0 mm 5 mps 747 mmHg 66%
    09:00 +27°C° 0 mm 5 mps 747 mmHg 59%
    10:00 +29°C° 0 mm 5 mps 747 mmHg 52%
    11:00 +30°C° 0.3 mm 5 mps 747 mmHg 48%
    12:00 +32°C° 0.3 mm 5 mps 747 mmHg 43%
    13:00 +34°C° 0.3 mm 5 mps 746 mmHg 39%
    14:00 +33°C° 0.1 mm 5 mps 746 mmHg 40%
    15:00 +33°C° 0.1 mm 4 mps 746 mmHg 41%
    16:00 +33°C° 0.1 mm 3 mps 745 mmHg 41%
    17:00 +30°C° 0 mm 3 mps 745 mmHg 45%
    18:00 +29°C° 0 mm 3 mps 746 mmHg 49%
    19:00 +28°C° 0 mm 2 mps 746 mmHg 52%
    20:00 +26°C° 0 mm 2 mps 746 mmHg 57%
    21:00 +25°C° 0 mm 3 mps 747 mmHg 61%
    22:00 +24°C° 0 mm 3 mps 747 mmHg 66%
    23:00 +22°C° 0.2 mm 3 mps 747 mmHg 72%
    Show more